YV203A SVBM-MRLB

Flight info

Callsign YV203A
Flight time N/A
Altitude 43000
Route ATEXA1 KOKRY DCT CTG UL335 BOGAL DCT BDT UG440 ISEBA DCT SELAK SELAK1V
Aircraft E55P/M-SBDFGHJ2RWY/LB2

Departure

Time 2026-04-22 01:10
Airport Jacinto Lara International Airport (SVBM)

Arrival

Time N/A
Airport Daniel Oduber Quirós International Airport (MRLB)
Time Latitude Longitude Altitude Speed Heading
2026-04-22 00:07 10.04556 -69.35886 2040 ft 0 kts 346°
2026-04-22 00:57 10.04551 -69.35881 2039 ft 1 kts 319°
2026-04-22 00:57 10.04539 -69.35877 2040 ft 2 kts 345°
2026-04-22 00:57 10.04525 -69.35873 2040 ft 2 kts 346°
2026-04-22 00:57 10.04511 -69.35870 2040 ft 2 kts 346°
2026-04-22 00:58 10.04497 -69.35866 2040 ft 2 kts 346°
2026-04-22 00:58 10.04482 -69.35862 2040 ft 2 kts 346°
2026-04-22 00:58 10.04468 -69.35858 2040 ft 2 kts 346°
2026-04-22 00:58 10.04455 -69.35855 2040 ft 0 kts 346°
2026-04-22 00:59 10.04446 -69.35850 2040 ft 2 kts 313°
2026-04-22 00:59 10.04442 -69.35838 2039 ft 0 kts 261°
2026-04-22 00:59 10.04442 -69.35834 2039 ft 0 kts 260°
2026-04-22 01:01 10.04442 -69.35836 2039 ft 0 kts 260°
2026-04-22 01:02 10.04442 -69.35838 2039 ft 0 kts 259°
2026-04-22 01:02 10.04441 -69.35840 2039 ft 0 kts 257°
2026-04-22 01:02 10.04440 -69.35844 2039 ft 0 kts 254°
2026-04-22 01:02 10.04436 -69.35855 2040 ft 3 kts 252°
2026-04-22 01:03 10.04429 -69.35895 2042 ft 7 kts 262°
2026-04-22 01:03 10.04420 -69.35960 2045 ft 11 kts 262°
2026-04-22 01:03 10.04404 -69.36065 2044 ft 18 kts 261°
2026-04-22 01:03 10.04381 -69.36214 2044 ft 23 kts 261°
2026-04-22 01:04 10.04353 -69.36395 2044 ft 27 kts 261°
2026-04-22 01:04 10.04322 -69.36595 2046 ft 30 kts 260°
2026-04-22 01:04 10.04288 -69.36810 2052 ft 31 kts 261°
2026-04-22 01:04 10.04255 -69.37028 2053 ft 26 kts 261°
2026-04-22 01:05 10.04211 -69.37128 2051 ft 10 kts 186°
2026-04-22 01:05 10.04158 -69.37122 2051 ft 1 kts 173°
2026-04-22 01:05 10.04157 -69.37122 2051 ft 0 kts 173°
2026-04-22 01:06 10.04152 -69.37122 2051 ft 1 kts 173°
2026-04-22 01:07 10.04141 -69.37120 2051 ft 2 kts 174°
2026-04-22 01:07 10.04116 -69.37118 2052 ft 4 kts 175°
2026-04-22 01:07 10.04082 -69.37101 2052 ft 6 kts 135°
2026-04-22 01:07 10.04073 -69.37047 2052 ft 8 kts 80°
2026-04-22 01:08 10.04076 -69.37024 2052 ft 0 kts 81°
2026-04-22 01:08 10.04077 -69.37022 2052 ft 0 kts 81°
2026-04-22 01:08 10.04077 -69.37020 2052 ft 0 kts 81°
2026-04-22 01:08 10.04077 -69.37018 2052 ft 0 kts 81°
2026-04-22 01:09 10.04078 -69.37015 2052 ft 0 kts 81°
2026-04-22 01:09 10.04088 -69.36935 2052 ft 38 kts 82°
2026-04-22 01:09 10.04165 -69.36446 2047 ft 102 kts 81°
2026-04-22 01:09 10.04298 -69.35560 2118 ft 143 kts 82°
2026-04-22 01:10 10.04414 -69.34521 2540 ft 155 kts 85°
2026-04-22 01:10 10.04514 -69.33382 3048 ft 173 kts 83°
2026-04-22 01:10 10.04761 -69.32111 3498 ft 197 kts 79°
2026-04-22 01:10 10.05318 -69.30780 4021 ft 217 kts 45°
2026-04-22 01:11 10.06674 -69.30196 4795 ft 223 kts
2026-04-22 01:11 10.08068 -69.30725 5701 ft 223 kts 319°
2026-04-22 01:11 10.08981 -69.32015 6518 ft 227 kts 302°
2026-04-22 01:11 10.09722 -69.33402 7296 ft 231 kts 298°
2026-04-22 01:12 10.10422 -69.34886 7892 ft 244 kts 296°
2026-04-22 01:12 10.11124 -69.36493 8570 ft 252 kts 294°
2026-04-22 01:12 10.11799 -69.38103 9451 ft 251 kts 294°
2026-04-22 01:12 10.12469 -69.39736 10252 ft 253 kts 294°
2026-04-22 01:13 10.13136 -69.41379 11000 ft 256 kts 294°
2026-04-22 01:13 10.13807 -69.43040 11739 ft 259 kts 294°
2026-04-22 01:13 10.14496 -69.44750 12485 ft 262 kts 294°
2026-04-22 01:13 10.15176 -69.46442 13201 ft 265 kts 294°
2026-04-22 01:14 10.15873 -69.48177 13911 ft 268 kts 294°
2026-04-22 01:14 10.16566 -69.49902 14601 ft 270 kts 294°
2026-04-22 01:14 10.17274 -69.51666 15295 ft 273 kts 294°
2026-04-22 01:14 10.17993 -69.53457 15971 ft 276 kts 294°
2026-04-22 01:15 10.18722 -69.55273 16639 ft 279 kts 294°
2026-04-22 01:15 10.19444 -69.57072 17285 ft 281 kts 295°
2026-04-22 01:15 10.20182 -69.58912 17929 ft 283 kts 295°
2026-04-22 01:15 10.20925 -69.60764 18552 ft 286 kts 295°
2026-04-22 01:16 10.21674 -69.62631 19173 ft 288 kts 295°
2026-04-22 01:16 10.22430 -69.64517 19771 ft 291 kts 295°
2026-04-22 01:16 10.23198 -69.66431 20361 ft 293 kts 295°
2026-04-22 01:16 10.23899 -69.68381 20920 ft 298 kts 283°
2026-04-22 01:17 10.23975 -69.70496 21467 ft 303 kts 273°
2026-04-22 01:17 10.23985 -69.72612 22002 ft 306 kts 272°
2026-04-22 01:17 10.23994 -69.74808 22229 ft 320 kts 272°
2026-04-22 01:17 10.24003 -69.77130 22250 ft 341 kts 272°
2026-04-22 01:18 10.24011 -69.79574 22594 ft 349 kts 272°
2026-04-22 01:18 10.24019 -69.82089 22684 ft 367 kts 272°
2026-04-22 01:18 10.24028 -69.84748 22696 ft 385 kts 272°
2026-04-22 01:18 10.24036 -69.87514 22870 ft 397 kts 272°
2026-04-22 01:19 10.24043 -69.90292 23415 ft 397 kts 272°
2026-04-22 01:19 10.24049 -69.93092 24023 ft 396 kts 272°
2026-04-22 01:19 10.24056 -69.95879 24626 ft 394 kts 272°
2026-04-22 01:19 10.24062 -69.98640 25202 ft 393 kts 272°
2026-04-22 01:20 10.24070 -70.01373 25772 ft 391 kts 272°
2026-04-22 01:20 10.24076 -70.04136 26328 ft 390 kts 273°
2026-04-22 01:20 10.24082 -70.06897 26889 ft 389 kts 273°
2026-04-22 01:20 10.24089 -70.09594 27410 ft 387 kts 273°
2026-04-22 01:21 10.24094 -70.12313 27928 ft 386 kts 273°
2026-04-22 01:21 10.24100 -70.15031 28452 ft 385 kts 273°
2026-04-22 01:21 10.24106 -70.17748 28948 ft 383 kts 273°
2026-04-22 01:21 10.24111 -70.20430 29438 ft 382 kts 274°
2026-04-22 01:22 10.24116 -70.23124 29920 ft 381 kts 274°
2026-04-22 01:22 10.24121 -70.25785 30383 ft 380 kts 274°
2026-04-22 01:22 10.24126 -70.28472 30859 ft 378 kts 274°
2026-04-22 01:22 10.24130 -70.31121 31309 ft 377 kts 274°
2026-04-22 01:23 10.24134 -70.33745 31755 ft 375 kts 274°
2026-04-22 01:23 10.24138 -70.36401 32204 ft 374 kts 274°
2026-04-22 01:23 10.24142 -70.39026 32625 ft 372 kts 274°
2026-04-22 01:23 10.24146 -70.41618 33036 ft 371 kts 274°
2026-04-22 01:24 10.24148 -70.44223 33441 ft 370 kts 274°
2026-04-22 01:24 10.24151 -70.46825 33834 ft 369 kts 274°
2026-04-22 01:24 10.24154 -70.49421 34223 ft 367 kts 274°
2026-04-22 01:24 10.24157 -70.51991 34584 ft 366 kts 274°
2026-04-22 01:25 10.24160 -70.54587 34941 ft 366 kts 274°
2026-04-22 01:25 10.24163 -70.57077 35269 ft 365 kts 274°
2026-04-22 01:25 10.24165 -70.59632 35606 ft 364 kts 274°
2026-04-22 01:25 10.24166 -70.62213 35948 ft 363 kts 274°
2026-04-22 01:26 10.24168 -70.64775 36263 ft 363 kts 274°
2026-04-22 01:26 10.24169 -70.67323 36542 ft 363 kts 274°
2026-04-22 01:26 10.24170 -70.69870 36823 ft 363 kts 274°
2026-04-22 01:26 10.24171 -70.72446 37096 ft 363 kts 274°
2026-04-22 01:27 10.24171 -70.73279 37180 ft 363 kts 274°